Total_Precipitation_Accumulation
0.22 0.28 0.33 0.38 0.27 0.29 0.28 0.24 0.20 0.21 0.19 0.13 0.11 0.11 0.11 0.12 0.13 0.16 0.19 0.19 0.23 0.33 0.42 0.40 0.34 0.28 0.26 0.25 0.25 0.23 0.22 0.20 0.19 0.17 0.14 0.10 0.09 0.09 0.09 0.09 0.09 0.10 0.11
0.34 0.41 0.40 0.39 0.28 0.28 0.35 0.43 0.42 0.31 0.25 0.22 0.17 0.17 0.17 0.18 0.20 0.21 0.23 0.21 0.25 0.32 0.43 0.47 0.46 0.44 0.38 0.33 0.30 0.28 0.28 0.27 0.26 0.25 0.23 0.20 0.18 0.16 0.15 0.14 0.14 0.13 0.12
0.35 0.38 0.45 0.46 0.39 0.36 0.36 0.36 0.41 0.43 0.37 0.33 0.30 0.26 0.25 0.26 0.30 0.35 0.38 0.33 0.32 0.37 0.44 0.49 0.49 0.48 0.45 0.42 0.36 0.36 0.36 0.34 0.31 0.29 0.28 0.28 0.27 0.28 0.27 0.25 0.24 0.23 0.20
0.42 0.48 0.53 0.56 0.53 0.53 0.57 0.57 0.54 0.54 0.55 0.48 0.47 0.44 0.40 0.40 0.39 0.43 0.42 0.45 0.50 0.44 0.42 0.44 0.46 0.48 0.48 0.48 0.47 0.48 0.47 0.45 0.43 0.38 0.35 0.33 0.32 0.30 0.29 0.29 0.29 0.29 0.28
0.69 0.74 0.79 0.82 0.83 0.86 0.84 0.75 0.71 0.68 0.71 0.65 0.52 0.46 0.45 0.48 0.45 0.40 0.41 0.45 0.50 0.46 0.42 0.39 0.43 0.48 0.49 0.53 0.55 0.53 0.50 0.48 0.46 0.43 0.39 0.36 0.35 0.34 0.30 0.28 0.30 0.32 0.33
1.25 1.24 1.21 1.18 1.18 1.14 1.05 0.94 0.86 0.76 0.69 0.61 0.46 0.39 0.37 0.35 0.35 0.36 0.36 0.38 0.37 0.35 0.37 0.38 0.36 0.36 0.40 0.45 0.48 0.52 0.50 0.47 0.44 0.43 0.38 0.38 0.40 0.37 0.31 0.28 0.30 0.33 0.34
1.81 1.69 1.57 1.54 1.44 1.33 1.19 1.05 0.90 0.76 0.65 0.53 0.49 0.45 0.34 0.26 0.24 0.25 0.26 0.28 0.29 0.30 0.37 0.39 0.36 0.33 0.31 0.34 0.34 0.37 0.39 0.39 0.39 0.39 0.38 0.42 0.41 0.33 0.30 0.28 0.29 0.33 0.36
2.26 2.11 2.00 1.89 1.68 1.50 1.31 1.11 0.93 0.82 0.69 0.57 0.56 0.57 0.49 0.35 0.24 0.20 0.20 0.20 0.21 0.20 0.22 0.24 0.24 0.25 0.25 0.25 0.27 0.31 0.33 0.37 0.39 0.43 0.47 0.47 0.44 0.38 0.34 0.34 0.33 0.34 0.38
2.61 2.44 2.30 2.13 1.86 1.60 1.38 1.16 0.96 0.84 0.73 0.63 0.56 0.56 0.51 0.41 0.29 0.20 0.17 0.14 0.13 0.15 0.15 0.16 0.18 0.19 0.19 0.19 0.21 0.25 0.29 0.32 0.36 0.41 0.43 0.46 0.46 0.42 0.38 0.38 0.39 0.40 0.43
2.46 2.25 2.06 1.84 1.59 1.35 1.18 1.00 0.83 0.70 0.64 0.56 0.48 0.42 0.37 0.31 0.28 0.22 0.14 0.11 0.11 0.11 0.11 0.12 0.14 0.16 0.16 0.18 0.22 0.25 0.27 0.28 0.30 0.32 0.31 0.32 0.34 0.34 0.32 0.31 0.31 0.35 0.39
2.18 1.89 1.62 1.40 1.18 0.99 0.83 0.73 0.62 0.55 0.50 0.42 0.35 0.29 0.27 0.24 0.21 0.21 0.18 0.13 0.11 0.10 0.09 0.10 0.11 0.13 0.15 0.18 0.21 0.26 0.28 0.26 0.27 0.27 0.25 0.23 0.23 0.25 0.28 0.28 0.29 0.31 0.35
1.70 1.35 1.09 0.87 0.70 0.58 0.52 0.47 0.42 0.35 0.30 0.24 0.18 0.15 0.14 0.14 0.15 0.16 0.15 0.12 0.10 0.09 0.08 0.09 0.11 0.12 0.13 0.15 0.18 0.25 0.21 0.21 0.22 0.21 0.19 0.17 0.16 0.17 0.20 0.24 0.27 0.32 0.36
1.22 0.93 0.75 0.63 0.51 0.41 0.34 0.27 0.22 0.18 0.15 0.14 0.13 0.12 0.10 0.09 0.08 0.08 0.09 0.10 0.09 0.07 0.07 0.07 0.07 0.08 0.09 0.10 0.14 0.20 0.17 0.17 0.16 0.15 0.14 0.13 0.13 0.12 0.12 0.14 0.17 0.22 0.28
0.89 0.71 0.59 0.48 0.37 0.26 0.19 0.16 0.13 0.12 0.10 0.09 0.08 0.08 0.08 0.06 0.05 0.06 0.07 0.09 0.10 0.09 0.07 0.07 0.06 0.06 0.07 0.08 0.11 0.15 0.13 0.15 0.14 0.14 0.14 0.13 0.12 0.11 0.11 0.12 0.13 0.14 0.16
0.59 0.44 0.35 0.29 0.21 0.17 0.14 0.12 0.10 0.09 0.08 0.08 0.07 0.06 0.06 0.05 0.05 0.05 0.06 0.08 0.12 0.12 0.10 0.07 0.06 0.06 0.06 0.06 0.08 0.08 0.10 0.13 0.12 0.11 0.11 0.10 0.08 0.08 0.08 0.09 0.09 0.09 0.10
0.41 0.32 0.24 0.20 0.17 0.15 0.13 0.11 0.08 0.07 0.06 0.06 0.06 0.06 0.06 0.06 0.06 0.07 0.09 0.10 0.11 0.14 0.14 0.08 0.07 0.06 0.06 0.05 0.04 0.06 0.09 0.09 0.08 0.07 0.06 0.07 0.07 0.08 0.08 0.09 0.10 0.12 0.12
0.36 0.32 0.27 0.24 0.21 0.17 0.14 0.12 0.10 0.09 0.09 0.09 0.08 0.08 0.09 0.09 0.11 0.10 0.10 0.09 0.09 0.12 0.15 0.08 0.04 0.04 0.08 0.10 0.10 0.13 0.13 0.15 0.13 0.09 0.09 0.09 0.10 0.10 0.10 0.12 0.14 0.15 0.15
0.26 0.23 0.20 0.19 0.17 0.15 0.13 0.11 0.11 0.10 0.09 0.08 0.07 0.08 0.08 0.08 0.09 0.08 0.08 0.07 0.08 0.12 0.15 0.13 0.09 0.08 0.11 0.14 0.16 0.17 0.09 0.07 0.12 0.09 0.09 0.10 0.12 0.13 0.14 0.15 0.15 0.14 0.11
0.18 0.16 0.15 0.13 0.11 0.09 0.08 0.06 0.05 0.04 0.04 0.04 0.04 0.05 0.06 0.06 0.07 0.07 0.08 0.07 0.08 0.10 0.16 0.20 0.16 0.15 0.13 0.12 0.15 0.13 0.14 0.20 0.12 0.09 0.08 0.09 0.10 0.11 0.10 0.08 0.08 0.08 0.06
0.14 0.12 0.10 0.08 0.06 0.04 0.03 0.02 0.02 0.02 0.02 0.03 0.03 0.04 0.04 0.05 0.06 0.07 0.07 0.09 0.12 0.17 0.20 0.22 0.19 0.14 0.12 0.11 0.18 0.19 0.17 0.18 0.16 0.11 0.11 0.09 0.08 0.06 0.05 0.04 0.04 0.05 0.05
0.10 0.08 0.06 0.04 0.03 0.02 0.01 0.01 0.01 0.01 0.01 0.02 0.03 0.03 0.03 0.04 0.06 0.06 0.07 0.11 0.17 0.22 0.23 0.23 0.19 0.14 0.12 0.15 0.20 0.23 0.21 0.16 0.12 0.11 0.12 0.10 0.11 0.11 0.11 0.10 0.07 0.06 0.04
0.05 0.03 0.02 0.02 0.01 0.00 0.00 0.00 0.00 0.00 0.01 0.03 0.04 0.04 0.04 0.03 0.03 0.04 0.06 0.11 0.18 0.22 0.23 0.24 0.21 0.20 0.17 0.22 0.29 0.29 0.29 0.29 0.22 0.16 0.19 0.12 0.11 0.13 0.14 0.15 0.12 0.08 0.06
0.03 0.03 0.02 0.02 0.02 0.01 0.00 0.00 0.00 0.00 0.03 0.05 0.07 0.07 0.05 0.03 0.05 0.08 0.08 0.08 0.10 0.12 0.18 0.26 0.28 0.27 0.28 0.31 0.40 0.39 0.38 0.38 0.32 0.26 0.30 0.22 0.17 0.17 0.14 0.13 0.13 0.11 0.08
0.03 0.03 0.02 0.03 0.05 0.03 0.00 0.00 0.00 0.01 0.04 0.06 0.07 0.07 0.08 0.08 0.08 0.07 0.06 0.06 0.09 0.13 0.16 0.20 0.29 0.28 0.26 0.29 0.39 0.43 0.41 0.38 0.31 0.31 0.39 0.36 0.22 0.18 0.13 0.22 0.23 0.17 0.12
0.04 0.04 0.03 0.04 0.06 0.06 0.01 0.00 0.00 0.01 0.04 0.04 0.04 0.05 0.07 0.09 0.08 0.08 0.07 0.08 0.11 0.15 0.14 0.18 0.24 0.29 0.34 0.39 0.43 0.44 0.47 0.50 0.42 0.35 0.44 0.46 0.34 0.26 0.18 0.26 0.30 0.23 0.21
0.04 0.04 0.04 0.05 0.07 0.08 0.02 0.00 0.01 0.01 0.03 0.04 0.06 0.08 0.09 0.08 0.07 0.07 0.06 0.12 0.18 0.18 0.20 0.25 0.40 0.58 0.65 0.63 0.54 0.49 0.52 0.56 0.55 0.55 0.52 0.53 0.46 0.37 0.31 0.27 0.31 0.35 0.39